SCP
0 0 0 0 0 0 0 0 0 0 0 0 0 0 0 0 0 0 0 0 0 1 1 1 1 1 2 2 2 2 2 2 2 2 1 1 1 1 1 1 1 1 1 1
0 0 0 0 0 0 0 0 0 0 0 0 0 0 0 0 0 0 0 0 0 1 1 1 1 1 2 2 2 2 2 2 2 2 1 1 1 1 1 1 1 1 1 1
0 0 0 0 0 0 0 0 0 0 0 0 0 0 0 0 0 0 0 0 0 0 1 1 1 1 1 1 1 1 2 2 2 1 1 1 1 1 1 1 1 1 1 1
0 0 0 0 0 0 0 0 0 0 0 0 0 0 0 0 0 0 0 0 0 0 0 1 1 1 1 1 1 1 2 2 2 1 1 1 1 1 1 0 0 1 1 0
0 0 0 0 0 0 0 0 0 0 0 0 0 0 0 0 0 0 0 0 0 0 0 0 1 1 1 1 1 1 2 2 1 1 1 1 1 0 0 0 0 0 1 1
0 0 0 0 0 0 0 0 0 0 0 0 0 0 0 0 0 0 0 0 0 0 0 0 1 1 1 1 1 1 2 2 1 1 1 1 1 1 0 0 0 0 0 0
0 0 0 0 0 0 0 0 0 0 0 0 0 0 0 0 0 0 0 0 0 0 0 0 0 1 1 1 1 1 1 1 1 1 1 1 1 1 1 0 0 0 0 0
0 0 0 0 0 0 0 0 0 0 0 0 0 0 0 0 0 0 0 0 0 0 0 0 0 1 1 1 1 1 1 1 1 1 1 1 1 1 1 0 0 0 0 0
0 0 0 0 0 0 0 0 0 0 0 0 0 0 0 0 0 0 0 0 0 0 0 0 0 0 0 1 1 1 1 1 1 1 1 1 1 1 0 0 0 0 0 0
0 0 0 0 0 0 0 0 0 0 0 0 0 0 0 0 0 0 0 0 0 0 0 0 0 0 0 1 1 1 1 1 1 1 1 1 1 1 1 0 0 0 0 0
0 0 0 0 0 0 0 0 0 0 0 0 0 0 0 0 0 0 0 0 0 0 0 0 0 0 0 0 0 1 1 1 1 1 1 1 1 1 1 0 0 0 0 0
0 0 0 0 0 0 0 0 0 0 0 0 0 0 0 0 0 0 0 0 0 0 0 0 0 0 0 0 0 1 1 1 1 1 1 1 1 1 1 0 0 0 0 0
0 0 0 0 0 0 0 0 0 0 0 0 0 0 0 0 0 0 0 0 0 0 0 0 0 0 0 0 0 1 1 1 1 0 0 1 1 1 0 0 0 0 0 0
0 0 0 0 0 0 0 0 0 0 0 0 0 0 0 0 0 0 0 0 0 0 0 0 0 0 0 0 0 0 0 0 0 0 0 0 0 0 0 0 0 0 0 0
0 0 0 0 0 0 0 0 0 0 0 0 0 0 0 0 0 0 0 0 0 0 0 0 0 0 0 0 0 0 0 0 0 0 0 0 0 0 0 0 0 0 0 0
0 0 0 0 0 0 0 0 0 0 0 0 0 0 0 0 0 0 0 0 0 0 0 0 0 0 0 0 0 0 0 0 0 0 0 0 0 0 0 0 0 0 0 0
0 0 0 0 0 0 0 0 0 0 0 0 0 0 0 0 0 0 0 0 0 0 0 0 0 0 0 0 0 0 0 0 0 0 0 0 0 0 0 0 0 0 0 0
0 0 0 0 0 0 0 0 0 0 0 0 0 0 0 0 0 0 0 0 0 0 0 0 0 0 0 0 0 0 0 0 0 0 0 0 0 0 0 0 0 0 0 0
0 0 0 0 0 0 0 0 0 0 0 0 0 0 0 0 0 0 0 0 0 0 0 0 0 0 0 0 0 0 0 0 0 0 0 0 0 0 0 0 0 0 0 0
0 0 0 0 0 0 0 0 0 0 0 0 0 0 0 0 0 0 0 0 0 0 0 0 0 0 0 0 0 0 0 0 0 0 0 0 0 0 0 0 0 0 0 0
0 0 0 0 0 0 0 0 0 0 0 0 0 0 0 0 0 0 0 0 0 0 0 0 0 0 0 0 0 0 0 0 0 0 0 0 0 0 0 0 0 0 0 0
0 0 0 0 0 0 0 0 0 0 0 0 0 0 0 0 0 0 0 0 0 0 0 0 0 0 0 0 0 0 0 0 0 0 0 0 0 0 0 0 0 0 0 0
0 0 0 0 0 0 0 0 0 0 0 0 0 0 0 0 0 0 0 0 0 0 0 0 0 0 0 0 0 0 0 0 0 0 0 0 0 0 0 0 0 0 0 0
0 0 0 0 0 0 0 0 0 0 0 0 0 0 0 0 0 0 0 0 0 0 0 0 0 0 0 0 0 0 0 0 0 0 0 0 0 0 0 0 0 0 0 0
0 0 0 0 0 0 0 0 0 0 0 0 0 0 0 0 0 0 0 0 0 0 0 0 0 0 0 0 0 0 0 0 0 0 0 0 0 0 0 0 0 0 0 0
0 0 0 0 0 0 0 0 0 0 0 0 0 0 0 0 0 0 0 0 0 0 0 0 0 0 0 0 0 0 0 0 0 0 0 0 0 0 0 0 0 0 0 0
Wind_Speed
12 11 11 10 10 10 8 10 11 8 5 6 6 4 5 5 6 5 5 4 4 4 5 5 4 3 4 5 4 4 4 4 3 2 2 2 1 1 1 1 2 0 0 0
11 12 12 10 9 9 10 11 11 6 4 5 6 6 6 6 6 5 4 3 3 3 4 5 5 4 4 5 5 4 4 4 3 2 2 2 2 1 1 1 1 1 1 1
11 9 8 10 10 8 9 10 9 8 6 8 8 8 7 5 4 3 3 3 3 2 3 3 4 4 4 4 4 5 4 4 3 3 2 1 1 0 1 1 1 1 1 1
10 10 8 9 10 8 8 9 10 10 8 7 8 5 6 6 5 4 3 4 4 4 3 4 4 3 3 5 5 5 5 4 3 3 2 2 2 1 1 1 1 2 2 1
9 9 8 9 9 7 8 8 10 11 10 10 8 5 4 5 5 4 4 3 3 2 3 4 5 5 4 4 5 5 5 5 4 3 3 2 1 1 1 1 2 2 1 1
11 9 8 7 7 7 7 8 10 10 7 9 8 6 4 4 5 5 4 3 2 2 2 3 4 5 4 4 4 5 5 4 4 3 3 2 2 1 1 2 1 1 1 1
11 9 7 6 8 5 6 6 4 5 4 6 5 3 3 4 4 5 5 4 3 4 3 4 4 4 4 4 4 4 5 4 4 3 2 2 2 2 2 2 1 1 0 0
8 6 5 5 5 4 6 7 5 5 6 5 4 2 4 6 6 5 5 5 4 3 3 3 3 3 4 4 4 3 4 4 3 3 2 2 2 2 1 1 1 0 0 0
6 5 4 4 4 5 6 7 7 7 8 7 2 5 8 8 6 5 4 5 4 3 3 3 2 2 2 4 4 3 3 3 3 2 2 2 2 1 1 1 1 0 0 1
6 7 5 3 4 6 7 8 5 5 5 5 3 0 3 5 5 5 4 4 4 4 4 4 2 3 3 3 4 4 4 3 3 3 2 2 1 1 1 1 0 1 1 1
7 5 6 6 6 7 5 5 4 5 5 5 4 2 4 4 3 4 4 3 4 5 6 5 4 4 3 3 3 3 4 3 2 2 2 2 2 2 2 1 1 1 1 1
5 4 6 8 6 3 4 5 4 4 5 5 3 1 3 4 4 3 3 4 4 4 4 5 5 4 3 2 3 2 3 3 2 2 2 2 2 2 1 1 1 1 1 1
5 4 6 5 2 1 5 5 5 4 3 5 3 2 6 5 4 4 3 3 4 4 3 3 4 4 3 2 2 2 2 2 2 2 2 2 2 2 1 1 1 1 1 1
4 4 7 7 6 5 5 5 4 5 4 4 3 2 4 3 4 4 3 3 3 4 4 2 2 3 3 2 2 2 2 2 2 2 2 2 2 1 1 2 2 2 1 1
3 6 7 9 8 7 7 5 5 5 5 5 3 1 3 3 3 4 3 2 2 3 4 3 3 3 2 2 1 1 1 2 2 2 2 2 2 2 1 1 1 1 1 1
2 6 8 9 8 8 7 6 5 5 5 4 2 0 5 5 3 4 3 2 1 3 3 3 3 3 2 1 1 1 1 2 2 2 2 2 2 2 1 1 1 0 1 1
5 5 8 9 9 8 6 5 4 3 3 3 2 1 4 4 3 3 3 2 2 3 3 2 3 2 1 1 0 1 1 1 2 1 1 1 1 1 1 1 1 0 0 0
6 6 6 8 8 8 3 1 1 0 2 3 2 4 4 3 4 3 3 2 3 3 2 2 2 1 0 0 1 1 1 2 2 2 2 2 2 1 1 1 1 0 1 1
7 7 7 7 8 6 4 2 2 2 1 2 2 4 4 3 4 4 4 3 3 3 2 2 1 1 1 0 0 1 1 2 2 2 2 1 1 1 1 1 1 1 1 1
7 6 7 8 9 6 0 1 0 1 2 2 3 3 3 2 1 3 4 4 4 3 2 1 1 1 2 0 1 1 2 2 1 1 1 1 1 1 1 1 1 1 1 1
6 6 8 9 9 3 2 2 1 2 1 3 4 4 3 3 3 4 4 4 3 2 1 1 1 1 1 1 1 1 2 1 1 1 1 0 1 1 2 1 1 1 1 1
6 5 6 7 8 2 4 2 3 4 3 3 4 4 3 3 4 5 4 3 2 1 1 1 1 0 0 1 1 1 1 1 1 1 1 0 1 2 1 2 2 2 2 2
3 2 2 2 2 4 5 6 5 4 3 3 4 4 3 3 4 3 3 2 1 1 1 1 0 0 0 1 1 1 1 1 1 1 1 1 1 1 1 2 3 2 3 2
2 0 1 1 3 3 4 4 3 3 3 3 3 2 2 2 2 2 2 1 1 1 0 0 1 1 1 1 1 1 1 1 2 2 2 2 2 2 2 2 2 2 2 3
5 3 3 2 2 2 2 2 2 2 2 2 2 2 1 1 1 2 1 1 1 1 0 1 2 2 2 2 1 1 2 2 2 2 2 2 3 2 1 1 1 2 1 2
4 2 3 2 0 1 2 2 1 1 1 1 1 1 1 0 1 1 1 1 1 1 1 1 2 3 3 2 2 2 2 2 2 2 2 3 3 2 2 2 2 1 2 2
Wind_Direction
238 239 249 252 248 268 286 280 280 267 230 220 232 236 232 194 183 180 193 179 166 170 156 140 140 135 127 127 129 133 143 146 148 147 159 157 157 156 149 128 113 130 216 207
251 246 257 268 260 265 279 277 278 274 256 240 229 230 218 200 186 172 173 170 158 154 142 146 152 151 142 142 147 148 149 149 158 147 163 179 178 184 158 149 167 179 216 252
256 266 263 263 265 260 267 271 274 278 262 245 231 224 213 179 147 141 154 150 149 146 151 145 154 148 152 155 158 156 154 153 159 157 161 154 142 158 131 154 164 194 214 214
263 269 267 269 266 272 271 275 275 268 257 253 243 242 187 175 162 153 171 173 163 169 183 167 151 150 160 164 159 156 151 155 161 163 166 173 181 191 213 211 192 206 215 217
269 275 270 264 271 276 273 280 280 275 265 261 245 245 191 171 171 159 170 177 164 180 181 167 157 164 174 169 155 147 145 154 157 163 169 172 205 231 220 221 202 213 194 187
270 264 253 261 268 267 279 281 279 277 266 259 248 243 179 164 168 155 148 162 159 139 104 140 148 153 157 157 149 140 137 146 155 165 172 168 203 226 230 239 226 211 177 164
277 258 236 252 261 264 281 279 278 285 264 257 234 225 95 118 131 141 148 148 145 135 148 148 149 148 143 146 148 143 139 145 156 163 164 172 201 215 213 227 236 202 163 111
272 262 227 245 260 273 266 268 272 283 283 281 258 197 123 118 111 122 132 138 138 143 152 149 152 151 154 147 134 131 138 146 158 161 160 175 201 218 217 221 241 209 122 129
289 278 261 259 253 254 270 266 278 280 276 280 248 129 117 110 114 124 128 133 133 146 140 130 142 141 128 123 119 126 137 137 143 149 163 184 192 186 195 225 199 99 356 260
278 291 294 285 265 246 259 282 295 287 294 297 282 120 123 129 130 137 156 152 137 140 126 112 112 107 103 104 104 118 124 136 153 165 173 176 178 168 176 159 92 168 234 255
288 295 284 270 254 267 254 262 283 297 300 303 301 16 93 125 142 153 155 151 156 142 135 130 126 120 133 120 121 141 130 136 163 176 169 156 160 167 154 168 204 196 227 246
302 296 278 266 266 297 293 290 278 282 297 300 306 48 104 141 148 124 123 134 124 116 123 132 134 135 134 127 137 155 144 150 159 159 154 148 142 152 157 185 186 198 234 257
335 312 283 261 233 267 285 290 293 286 279 285 287 151 140 135 112 98 98 119 121 124 118 126 124 125 119 112 116 142 155 155 164 156 160 160 166 171 183 198 192 199 223 250
294 274 270 281 292 298 291 301 306 298 292 296 310 136 139 118 111 111 116 114 124 129 122 121 130 129 129 131 147 167 172 177 176 166 164 167 162 170 199 213 211 216 226 250
285 277 277 282 286 287 291 297 299 292 291 291 297 211 146 126 133 122 127 125 139 138 129 150 144 122 129 129 149 166 163 166 163 160 162 164 165 175 203 229 237 236 238 253
255 289 294 288 283 281 284 286 285 289 289 285 265 179 121 124 128 115 116 129 150 128 115 117 116 118 125 129 155 179 169 160 171 173 169 174 178 180 197 209 219 281 326 1
256 267 282 277 278 281 284 293 288 279 274 279 284 126 131 131 134 132 142 163 144 105 97 94 107 118 141 170 198 198 200 174 171 179 183 171 180 179 188 210 158 165 211 301
252 268 269 271 277 270 262 340 356 87 37 37 74 110 118 130 129 117 119 132 117 99 88 90 99 111 145 173 191 203 212 199 185 180 181 188 193 168 162 157 156 197 196 199
211 234 261 268 266 254 224 238 228 206 120 75 90 107 105 110 122 105 98 98 98 96 81 82 111 143 128 278 253 223 233 223 201 192 196 192 176 166 175 183 184 204 195 202
205 210 246 263 269 271 248 55 148 166 178 118 111 106 113 123 128 103 107 107 101 101 101 85 133 132 120 137 260 239 251 235 221 219 217 191 166 180 211 197 174 178 201 233
224 221 237 255 260 263 25 27 125 224 62 106 109 108 108 105 78 97 104 100 101 108 112 97 106 113 135 170 191 226 245 249 250 244 245 208 159 189 203 171 167 180 204 214
246 246 241 254 257 247 33 45 54 63 61 95 96 90 92 99 103 107 107 107 116 127 110 94 90 69 100 172 202 236 246 265 279 263 248 230 183 229 212 166 186 199 210 221
254 289 306 347 53 78 57 57 72 78 59 61 77 81 86 107 113 105 105 113 125 110 80 91 119 138 161 202 203 230 240 231 231 239 243 218 210 230 206 196 194 206 211 226
275 201 210 184 145 115 99 94 83 76 65 58 74 74 83 101 110 102 111 118 102 98 90 2 269 250 250 239 233 229 216 214 215 217 217 215 217 219 230 232 221 218 220 237
297 281 258 218 172 156 136 101 78 68 65 56 52 89 86 97 124 115 111 103 63 23 281 254 269 265 258 237 215 218 223 215 222 225 222 234 237 233 240 236 258 240 240 236
288 285 273 277 133 229 133 117 103 88 52 23 359 21 64 51 42 42 69 71 320 294 279 266 269 263 261 252 225 223 233 222 227 235 235 241 237 233 231 221 233 272 238 218